N8IR-11 Weather Reports


time (UTC)temp
C
wind
direction
speed
KPH
gust
KPH
rain 1hr
cm
rain 24hr
cm
rain mn
cm
humidity
%
barometer
mb
20260503215710 16 205 14.5 20.9 0.00 0.00 0.00 45 1010.0
20260503215212 16 194 20.9 46.7 0.00 0.00 0.00 44 1010.1
20260503214712 16 207 24.1 38.6 0.00 0.00 0.00 44 1010.1
20260503214212 16 231 20.9 33.8 0.00 0.00 0.00 44 1010.1
20260503213712 16 217 22.5 37.0 0.00 0.00 0.00 44 1010.2
20260503213212 16 199 19.3 32.2 0.00 0.00 0.00 44 1010.2
20260503212712 16 221 20.9 37.0 0.00 0.00 0.00 44 1010.2
20260503212212 16 198 29.0 51.5 0.00 0.00 0.00 43 1010.2
20260503211712 16 234 12.9 27.4 0.00 0.00 0.00 44 1010.2
20260503211232 16 228 17.7 29.0 0.00 0.00 0.00 44 1010.3
20260503210712 16 227 14.5 27.4 0.00 0.00 0.00 44 1010.2
20260503210212 16 195 19.3 32.2 0.00 0.00 0.00 43 1010.1
20260503205712 16 191 16.1 30.6 0.00 0.00 0.00 42 1010.2
20260503205212 16 226 8.0 30.6 0.00 0.00 0.00 41 1010.4
20260503204732 16 208 27.4 43.5 0.00 0.00 0.00 41 1010.5
20260503204212 16 209 17.7 29.0 0.00 0.00 0.00 40 1010.4
20260503203712 16 188 17.7 33.8 0.00 0.00 0.00 40 1010.5
20260503203212 17 210 16.1 45.1 0.00 0.00 0.00 39 1010.6
20260503202712 17 219 20.9 41.8 0.00 0.00 0.00 40 1010.7
20260503202212 17 231 17.7 25.7 0.00 0.00 0.00 39 1010.6
20260503201712 17 204 17.7 33.8 0.00 0.00 0.00 38 1010.7
20260503201212 17 236 19.3 30.6 0.00 0.00 0.00 40 1010.8
20260503200712 17 216 11.3 32.2 0.00 0.00 0.00 41 1010.9
20260503200212 17 193 11.3 22.5 0.00 0.00 0.00 40 1010.9
20260503195712 17 212 16.1 30.6 0.00 0.00 0.00 39 1011.0
20260503195212 17 194 11.3 27.4 0.00 0.00 0.00 40 1011.0
20260503194712 17 229 19.3 33.8 0.00 0.00 0.00 38 1011.1
20260503194212 17 195 19.3 37.0 0.00 0.00 0.00 41 1011.0
20260503193712 17 195 19.3 33.8 0.00 0.00 0.00 39 1011.1
20260503193212 16 179 14.5 30.6 0.00 0.00 0.00 39 1011.2
20260503192712 16 231 20.9 32.2 0.00 0.00 0.00 39 1011.2
20260503192212 17 207 19.3 33.8 0.00 0.00 0.00 39 1011.2
20260503191712 17 218 19.3 32.2 0.00 0.00 0.00 40 1011.3
20260503191212 17 217 19.3 30.6 0.00 0.00 0.00 41 1011.3
20260503190712 16 182 19.3 35.4 0.00 0.00 0.00 39 1011.5
20260503190212 17 202 19.3 51.5 0.00 0.00 0.00 39 1011.6
20260503185712 17 191 16.1 27.4 0.00 0.00 0.00 39 1011.5
20260503185212 16 200 16.1 30.6 0.00 0.00 0.00 40 1011.7
20260503184732 16 211 16.1 29.0 0.00 0.00 0.00 40 1011.8
20260503184212 16 228 24.1 37.0 0.00 0.00 0.00 40 1012.0
20260503183732 17 246 14.5 24.1 0.00 0.00 0.00 39 1012.0
20260503183232 17 199 17.7 35.4 0.00 0.00 0.00 40 1012.1
20260503182712 17 216 19.3 38.6 0.00 0.00 0.00 41 1012.2
20260503182212 17 186 20.9 33.8 0.00 0.00 0.00 39 1012.2
20260503181732 17 241 17.7 33.8 0.00 0.00 0.00 39 1012.1
20260503181212 17 194 12.9 24.1 0.00 0.00 0.00 41 1012.2
20260503180712 17 201 12.9 24.1 0.00 0.00 0.00 41 1012.3
20260503180257 17 237 14.5 25.7 0.00 0.00 0.00 43 1012.3
20260503175712 16 246 12.9 25.7 0.00 0.00 0.00 41 1012.5
20260503175212 16 200 14.5 32.2 0.00 0.00 0.00 39 1012.5
20260503174712 16 209 16.1 29.0 0.00 0.00 0.00 41 1012.5
20260503174212 16 203 16.1 29.0 0.00 0.00 0.00 40 1012.6
20260503173712 16 224 24.1 35.4 0.00 0.00 0.00 42 1012.8
20260503173212 16 229 12.9 24.1 0.00 0.00 0.00 43 1012.8
20260503172712 16 246 17.7 25.7 0.00 0.00 0.00 41 1012.8
20260503172212 16 238 19.3 33.8 0.00 0.00 0.00 41 1012.9
20260503171712 15 239 14.5 32.2 0.00 0.00 0.00 39 1012.9
20260503171212 16 224 22.5 46.7 0.00 0.00 0.00 40 1013.2
20260503170712 16 179 8.0 40.2 0.00 0.00 0.00 41 1013.0
20260503170212 16 210 19.3 40.2 0.00 0.00 0.00 42 1013.2
20260503160211 16 208 17.7 30.6 0.00 0.00 0.00 45 1013.9
20260503150712 13 217 12.9 27.4 0.00 0.00 0.00 49 1014.4
20260503150212 13 220 12.9 29.0 0.00 0.00 0.00 52 1014.5
20260503140212 11 254 8.0 16.1 0.00 0.00 0.00 57 1015.1
20260503131231 8 226 8.0 17.7 0.00 0.00 0.00 61 1015.2
20260503130711 8 224 8.0 19.3 0.00 0.00 0.00 61 1015.3
20260503130211 8 220 11.3 24.1 0.00 0.00 0.00 62 1015.1
20260503120211 5 182 6.4 14.5 0.00 0.00 0.00 72 1015.1
20260503110711 2 200 3.2 9.7 0.00 0.00 0.00 78 1014.8
20260503110211 2 207 3.2 4.8 0.00 0.00 0.00 78 1014.8
20260503100211 1 203 0.0 6.4 0.00 0.00 0.00 83 1014.8
20260503090211 1 0.0 0.0 0.00 0.00 0.00 85 1015.1
20260503081211 1 223 1.6 3.2 0.00 0.00 0.00 87 1015.3
20260503080710 1 211 3.2 6.4 0.00 0.00 0.00 88 1015.3
20260503080231 1 204 1.6 4.8 0.00 0.00 0.00 88 1015.3
20260503072711 0 217 0.0 1.6 0.00 0.00 0.00 90 1015.4
20260503072210 0 0.0 0.0 0.00 0.00 0.00 90 1015.4
20260503071710 0 0.0 0.0 0.00 0.00 0.00 90 1015.4
20260503071211 0 0.0 0.0 0.00 0.00 0.00 90 1015.4
20260503070711 0 221 0.0 1.6 0.00 0.00 0.00 90 1015.4
20260503070211 0 221 0.0 1.6 0.00 0.00 0.00 90 1015.4
20260503060210 1 0.0 0.0 0.00 0.00 0.00 89 1015.7
20260503054710 1 0.0 0.0 0.00 0.00 0.00 88 1015.7
20260503054210 1 0.0 0.0 0.00 0.00 0.00 88 1015.9
20260503053711 1 0.0 0.0 0.00 0.00 0.00 88 1015.9
20260503053210 1 0.0 0.0 0.00 0.00 0.00 88 1015.9
20260503052711 1 0.0 0.0 0.00 0.00 0.00 87 1015.9
20260503052210 1 0.0 0.0 0.00 0.00 0.00 87 1015.9
20260503051710 1 0.0 0.0 0.00 0.00 0.00 87 1015.9
20260503051210 1 0.0 0.0 0.00 0.00 0.00 87 1015.9
20260503050731 1 0.0 0.0 0.00 0.00 0.00 87 1015.9
20260503050210 1 0.0 0.0 0.00 0.00 0.00 86 1016.0
20260503045710 1 0.0 0.0 0.00 0.00 0.00 86 1015.9
20260503045231 1 0.0 0.0 0.00 0.00 0.00 86 1016.1
20260503044710 2 0.0 0.0 0.00 0.00 0.00 85 1016.1
20260503044210 2 0.0 0.0 0.00 0.00 0.00 85 1016.2
20260503043710 2 0.0 0.0 0.00 0.00 0.00 84 1016.1
20260503043210 2 0.0 0.0 0.00 0.00 0.00 84 1016.0
20260503042710 2 0.0 0.0 0.00 0.00 0.00 84 1016.1
20260503042212 2 0.0 0.0 0.00 0.00 0.00 83 1016.1
20260503041712 2 0.0 0.0 0.00 0.00 0.00 83 1016.1
20260503041212 2 0.0 0.0 0.00 0.00 0.00 83 1016.1
20260503040712 2 0.0 0.0 0.00 0.00 0.00 82 1016.1
20260503040212 2 0.0 0.0 0.00 0.00 0.00 82 1016.2
20260503035710 2 0.0 0.0 0.00 0.00 0.00 81 1016.2
20260503035210 2 0.0 0.0 0.00 0.00 0.00 81 1016.2
20260503034710 2 0.0 0.0 0.00 0.00 0.00 80 1016.2
20260503034231 2 0.0 0.0 0.00 0.00 0.00 79 1016.1
20260503033710 3 0.0 0.0 0.00 0.00 0.00 78 1016.2
20260503033210 3 0.0 0.0 0.00 0.00 0.00 78 1016.3
20260503032730 3 0.0 0.0 0.00 0.00 0.00 77 1016.3
20260503032230 3 0.0 0.0 0.00 0.00 0.00 77 1016.3
20260503031710 3 0.0 0.0 0.00 0.00 0.00 77 1016.3
20260503031210 3 0.0 0.0 0.00 0.00 0.00 76 1016.4
20260503030710 3 0.0 0.0 0.00 0.00 0.00 76 1016.4
20260503030210 3 0.0 0.0 0.00 0.00 0.00 76 1016.4
20260503025710 4 0.0 0.0 0.00 0.00 0.00 76 1016.4
20260503025211 4 0.0 0.0 0.00 0.00 0.00 75 1016.4
20260503024710 4 0.0 0.0 0.00 0.00 0.00 74 1016.3
20260503024210 5 0.0 0.0 0.00 0.00 0.00 73 1016.3
20260503023710 5 0.0 0.0 0.00 0.00 0.00 71 1016.3
20260503023210 5 0.0 0.0 0.00 0.00 0.00 71 1016.4
20260503022710 5 0.0 0.0 0.00 0.00 0.00 71 1016.4
20260503022210 5 0.0 0.0 0.00 0.00 0.00 71 1016.5
20260503021711 5 0.0 0.0 0.00 0.00 0.00 70 1016.4
20260503021210 6 0.0 0.0 0.00 0.00 0.00 68 1016.4
20260503020731 6 0.0 0.0 0.00 0.00 0.00 67 1016.4
20260503020212 6 0.0 0.0 0.00 0.00 0.00 66 1016.3
20260503015712 6 0.0 0.0 0.00 0.00 0.00 65 1016.3
20260503015212 6 0.0 0.0 0.00 0.00 0.00 65 1016.3
20260503014712 6 0.0 0.0 0.00 0.00 0.00 64 1016.3
20260503014232 6 0.0 0.0 0.00 0.00 0.00 63 1016.3
20260503013732 6 0.0 0.0 0.00 0.00 0.00 64 1016.3
20260503013212 6 0.0 0.0 0.00 0.00 0.00 62 1016.2
20260503012712 6 0.0 0.0 0.00 0.00 0.00 60 1016.1
20260503012212 7 0.0 0.0 0.00 0.00 0.00 59 1016.1
20260503011712 7 0.0 0.0 0.00 0.00 0.00 59 1016.1
20260503011212 7 0.0 0.0 0.00 0.00 0.00 59 1016.1
20260503010712 7 0.0 0.0 0.00 0.00 0.00 58 1016.1
20260503010212 7 0.0 0.0 0.00 0.00 0.00 57 1016.1
20260503005712 7 0.0 0.0 0.00 0.00 0.00 55 1016.1
20260503005212 7 0.0 0.0 0.00 0.00 0.00 54 1016.0
20260503004712 7 0.0 0.0 0.00 0.00 0.00 54 1016.0
20260503004212 7 0.0 0.0 0.00 0.00 0.00 53 1016.0
20260503003712 7 0.0 0.0 0.00 0.00 0.00 53 1016.0
20260503003212 7 226 0.0 1.6 0.00 0.00 0.00 53 1016.0
20260503002752 8 0.0 0.0 0.00 0.00 0.00 53 1015.9
20260503002252 8 0.0 0.0 0.00 0.00 0.00 53 1016.0
20260503001712 8 0.0 1.6 0.00 0.00 0.00 53 1015.9
20260503001212 8 0.0 4.8 0.00 0.00 0.00 53 1015.8
20260503000712 8 0.0 1.6 0.00 0.00 0.00 53 1015.8
20260503000212 8 241 0.0 3.2 0.00 0.00 0.00 51 1015.8
20260502235712 8 0.0 0.0 0.00 0.00 0.00 51 1015.7
20260502235212 8 0.0 0.0 0.00 0.00 0.00 51 1015.7
20260502234712 8 222 3.2 4.8 0.00 0.00 0.00 52 1015.6
20260502234232 8 239 1.6 4.8 0.00 0.00 0.00 52 1015.7
20260502233712 8 0.0 0.0 0.00 0.00 0.00 51 1015.7
20260502233212 8 238 0.0 1.6 0.00 0.00 0.00 50 1015.7
20260502232712 8 251 1.6 6.4 0.00 0.00 0.00 50 1015.7
20260502232212 8 0.0 0.0 0.00 0.00 0.00 52 1015.7
20260502231732 8 251 0.0 3.2 0.00 0.00 0.00 52 1015.8
20260502231212 8 257 0.0 3.2 0.00 0.00 0.00 50 1015.8
20260502230712 8 40 0.0 1.6 0.00 0.00 0.00 49 1015.9
20260502230212 8 353 1.6 8.0 0.00 0.00 0.00 49 1015.9
20260502225712 8 339 1.6 4.8 0.00 0.00 0.00 49 1015.9
20260502225212 8 281 1.6 8.0 0.00 0.00 0.00 49 1015.8
20260502224712 8 290 1.6 3.2 0.00 0.00 0.00 48 1015.8
20260502224212 8 24 4.8 8.0 0.00 0.00 0.00 46 1015.7
20260502223712 8 319 0.0 4.8 0.00 0.00 0.00 47 1015.8
20260502223252 8 320 0.0 12.9 0.00 0.00 0.00 46 1015.8
20260502222712 8 290 6.4 11.3 0.00 0.00 0.00 48 1015.8
20260502222212 9 249 3.2 9.7 0.00 0.00 0.00 48 1015.9
20260502221712 9 279 1.6 4.8 0.00 0.00 0.00 48 1015.9
20260502221212 9 325 3.2 8.0 0.00 0.00 0.00 50 1015.9
20260502220712 8 0.0 4.8 0.00 0.00 0.00 48 1016.0
20260502220232 9 205 1.6 4.8 0.00 0.00 0.00 49 1016.0